N8AMF Weather Reports


Display with metric or nautical units.
time (UTC)temp
F
wind
direction
speed
MPH
gust
MPH
rain 1hr
in
rain 24hr
in
rain mn
in
humidity
%
barometer
mb
20260504045118 51 209 4.0 6.0 0.00 0.00 0.00 66 1010.0
20260504044616 51 208 7.0 9.0 0.00 0.00 0.00 65 1010.0
20260504044113 51 109 2.0 8.0 0.00 0.00 0.00 66 1009.8
20260504043610 51 138 2.0 8.0 0.00 0.00 0.00 66 1010.2
20260504043107 51 208 2.0 5.0 0.00 0.00 0.00 67 1010.2
20260504042604 51 202 2.0 6.0 0.00 0.00 0.00 67 1010.2
20260504042101 51 158 2.0 6.0 0.00 0.00 0.00 67 1010.1
20260504041556 50 182 2.0 4.0 0.00 0.00 0.00 68 1010.3
20260504041053 51 147 2.0 7.0 0.00 0.00 0.00 68 1010.1
20260504040551 50 161 2.0 3.0 0.00 0.00 0.00 69 1010.5
20260504040047 50 192 2.0 6.0 0.00 0.00 0.00 68 1010.4
20260504035544 50 179 2.0 7.0 0.00 0.00 0.00 68 1010.4
20260504035040 50 200 3.0 5.0 0.00 0.00 0.00 69 1010.6
20260504034538 51 121 2.0 4.0 0.00 0.00 0.00 68 1010.6
20260504034035 51 190 0.0 6.0 0.00 0.00 0.00 68 1010.4
20260504033533 51 201 4.0 5.0 0.00 0.00 0.00 66 1010.8
20260504033030 51 206 2.0 10.0 0.00 0.00 0.00 66 1010.9
20260504032527 51 196 2.0 3.0 0.00 0.00 0.00 66 1010.7
20260504032024 51 171 2.0 7.0 0.00 0.00 0.00 66 1010.9
20260504031521 52 234 3.0 4.0 0.00 0.00 0.00 66 1010.8
20260504031017 52 209 2.0 9.0 0.00 0.00 0.00 65 1010.8
20260504030514 52 186 2.0 4.0 0.00 0.00 0.00 65 1010.8
20260504030010 52 164 1.0 7.0 0.00 0.00 0.00 65 1011.1
20260504025507 52 326 0.0 5.0 0.00 0.00 0.00 64 1011.1
20260504025004 52 188 2.0 4.0 0.00 0.00 0.00 64 1011.1
20260504024502 52 207 2.0 5.0 0.00 0.00 0.00 64 1011.3
20260504023958 52 136 1.0 4.0 0.00 0.00 0.00 64 1011.4
20260504023455 52 348 2.0 7.0 0.00 0.00 0.00 64 1011.4
20260504022950 52 135 1.0 4.0 0.00 0.00 0.00 64 1011.2
20260504022447 52 181 3.0 4.0 0.00 0.00 0.00 63 1011.2
20260504021943 52 120 5.0 7.0 0.00 0.00 0.00 62 1011.2
20260504021441 52 119 2.0 7.0 0.00 0.00 0.00 62 1011.1
20260504020938 52 201 1.0 5.0 0.00 0.00 0.00 62 1011.3
20260504020434 53 241 0.0 4.0 0.00 0.00 0.00 62 1011.2
20260504015931 53 200 3.0 3.0 0.00 0.00 0.00 61 1011.5
20260504015427 53 228 2.0 5.0 0.00 0.00 0.00 62 1011.5
20260504014923 53 206 2.0 7.0 0.00 0.00 0.00 61 1011.5
20260504014419 53 193 3.0 6.0 0.00 0.00 0.00 60 1011.4
20260504013916 53 188 1.0 3.0 0.00 0.00 0.00 60 1011.5
20260504013415 53 196 2.0 5.0 0.00 0.00 0.00 59 1011.6
20260504012910 53 221 3.0 11.0 0.00 0.00 0.00 59 1011.4
20260504012409 53 209 3.0 6.0 0.00 0.00 0.00 60 1011.4
20260504011906 53 211 2.0 4.0 0.00 0.00 0.00 59 1011.4
20260504011403 54 205 0.0 7.0 0.00 0.00 0.00 58 1011.4
20260504010858 54 196 2.0 6.0 0.00 0.00 0.00 57 1011.2
20260504010354 55 195 2.0 7.0 0.00 0.00 0.00 55 1011.2
20260504005851 55 227 5.0 12.0 0.00 0.00 0.00 52 1011.0
20260504005348 56 216 3.0 11.0 0.00 0.00 0.00 49 1011.2
20260504004845 55 220 4.0 7.0 0.00 0.00 0.00 46 1010.9
20260504004343 55 180 0.0 3.0 0.00 0.00 0.00 46 1010.9
20260504003839 55 228 3.0 4.0 0.00 0.00 0.00 45 1010.7
20260504003336 56 204 1.0 3.0 0.00 0.00 0.00 44 1010.5
20260504002833 56 32 1.0 4.0 0.00 0.00 0.00 44 1010.5
20260504002330 56 49 0.0 4.0 0.00 0.00 0.00 43 1010.8
20260504001827 57 233 2.0 7.0 0.00 0.00 0.00 41 1010.6
20260504001324 57 232 3.0 7.0 0.00 0.00 0.00 42 1010.6
20260504000821 57 199 2.0 10.0 0.00 0.00 0.00 41 1010.6
20260504000318 58 121 0.0 5.0 0.00 0.00 0.00 42 1010.6
20260503235816 58 245 0.0 6.0 0.00 0.00 0.00 42 1010.6
20260503235313 58 207 4.0 7.0 0.00 0.00 0.00 41 1010.5
20260503234811 59 219 2.0 9.0 0.00 0.00 0.00 40 1010.7
20260503234308 59 213 4.0 7.0 0.00 0.00 0.00 41 1010.6
20260503233806 59 222 2.0 8.0 0.00 0.00 0.00 40 1010.6
20260503233301 59 204 3.0 11.0 0.00 0.00 0.00 41 1010.6
20260503232758 59 179 3.0 8.0 0.00 0.00 0.00 40 1010.6
20260503232256 59 216 2.0 9.0 0.00 0.00 0.00 40 1010.6
20260503231754 59 160 1.0 9.0 0.00 0.00 0.00 39 1010.7
20260503231250 60 204 4.0 12.0 0.00 0.00 0.00 40 1010.7
20260503230746 60 345 3.0 11.0 0.00 0.00 0.00 39 1010.7
20260503230244 60 188 3.0 8.0 0.00 0.00 0.00 39 1011.0
20260503225741 60 224 1.0 10.0 0.00 0.00 0.00 38 1010.8
20260503225241 60 213 5.0 6.0 0.00 0.00 0.00 39 1010.8
20260503224738 60 43 2.0 9.0 0.00 0.00 0.00 40 1010.8
20260503224236 60 216 4.0 12.0 0.00 0.00 0.00 38 1010.8
20260503223733 61 201 3.0 8.0 0.00 0.00 0.00 38 1010.7
20260503223231 61 231 4.0 9.0 0.00 0.00 0.00 37 1011.0
20260503222727 61 209 5.0 12.0 0.00 0.00 0.00 37 1011.0
20260503222225 61 233 3.0 7.0 0.00 0.00 0.00 39 1010.9
20260503221723 61 210 3.0 12.0 0.00 0.00 0.00 37 1010.9
20260503221221 61 198 4.0 9.0 0.00 0.00 0.00 37 1011.0
20260503220717 61 215 4.0 11.0 0.00 0.00 0.00 37 1011.0
20260503220214 62 198 3.0 8.0 0.00 0.00 0.00 35 1011.2
20260503215710 62 14 2.0 8.0 0.00 0.00 0.00 39 1010.8
20260503215208 61 217 10.0 14.0 0.00 0.00 0.00 36 1011.2
20260503214706 62 225 3.0 11.0 0.00 0.00 0.00 36 1011.0
20260503214202 63 221 12.0 17.0 0.00 0.00 0.00 35 1011.2
20260503213701 63 207 4.0 13.0 0.00 0.00 0.00 34 1011.1
20260503213157 64 211 3.0 17.0 0.00 0.00 0.00 34 1011.1
20260503212654 63 241 3.0 9.0 0.00 0.00 0.00 36 1011.1
20260503212152 63 223 6.0 15.0 0.00 0.00 0.00 34 1011.0
20260503211650 64 215 4.0 11.0 0.00 0.00 0.00 36 1011.0
20260503211145 62 223 3.0 13.0 0.00 0.00 0.00 36 1011.1
20260503210641 64 216 4.0 7.0 0.00 0.00 0.00 35 1011.1
20260503210138 63 217 5.0 13.0 0.00 0.00 0.00 34 1011.3
20260503205634 62 219 5.0 14.0 0.00 0.00 0.00 36 1011.2
20260503205130 63 223 5.0 9.0 0.00 0.00 0.00 36 1011.2
20260503204627 62 191 4.0 11.0 0.00 0.00 0.00 36 1011.3
20260503204125 62 97 5.0 14.0 0.00 0.00 0.00 37 1011.3
20260503203621 62 225 6.0 14.0 0.00 0.00 0.00 38 1011.3
20260503203119 61 213 2.0 7.0 0.00 0.00 0.00 39 1011.2
20260503202616 61 208 4.0 9.0 0.00 0.00 0.00 38 1011.3
20260503202114 62 211 4.0 7.0 0.00 0.00 0.00 38 1011.2
20260503201612 62 218 4.0 11.0 0.00 0.00 0.00 37 1011.5
20260503201109 61 203 4.0 5.0 0.00 0.00 0.00 38 1011.5
20260503200605 61 201 2.0 7.0 0.00 0.00 0.00 38 1011.7
20260503195559 64 200 3.0 12.0 0.00 0.00 0.00 37 1011.5
20260503195056 63 222 9.0 22.0 0.00 0.00 0.00 34 1011.6
20260503194553 62 212 5.0 10.0 0.00 0.00 0.00 38 1011.7
20260503194053 63 223 4.0 11.0 0.00 0.00 0.00 37 1012.0
20260503193550 63 206 4.0 10.0 0.00 0.00 0.00 40 1012.1
20260503193045 63 204 3.0 12.0 0.00 0.00 0.00 36 1012.1
20260503192541 62 195 0.0 9.0 0.00 0.00 0.00 37 1012.2
20260503192037 61 227 5.0 9.0 0.00 0.00 0.00 37 1012.2
20260503191534 62 147 3.0 7.0 0.00 0.00 0.00 39 1012.2
20260503191031 62 212 5.0 7.0 0.00 0.00 0.00 37 1012.5
20260503190528 62 197 4.0 15.0 0.00 0.00 0.00 36 1012.4
20260503190025 63 216 5.0 11.0 0.00 0.00 0.00 37 1012.5
20260503185521 61 207 2.0 6.0 0.00 0.00 0.00 40 1012.5
20260503185020 63 201 3.0 11.0 0.00 0.00 0.00 37 1012.5
20260503184517 62 195 5.0 10.0 0.00 0.00 0.00 37 1012.6
20260503184013 62 216 0.0 10.0 0.00 0.00 0.00 39 1012.5
20260503183510 61 201 2.0 9.0 0.00 0.00 0.00 38 1012.6
20260503183007 63 224 5.0 8.0 0.00 0.00 0.00 37 1012.6
20260503182506 62 216 7.0 12.0 0.00 0.00 0.00 38 1012.7
20260503182004 62 284 3.0 8.0 0.00 0.00 0.00 37 1012.9
20260503181500 62 186 2.0 15.0 0.00 0.00 0.00 38 1012.9
20260503180956 61 224 2.0 9.0 0.00 0.00 0.00 38 1013.1
20260503180454 61 202 2.0 7.0 0.00 0.00 0.00 38 1013.1
20260503175951 61 239 1.0 13.0 0.00 0.00 0.00 39 1013.2
20260503175449 62 226 6.0 10.0 0.00 0.00 0.00 38 1013.0
20260503174944 62 133 2.0 15.0 0.00 0.00 0.00 37 1013.3
20260503174443 62 226 3.0 9.0 0.00 0.00 0.00 41 1013.3
20260503173943 62 218 4.0 7.0 0.00 0.00 0.00 38 1013.2
20260503173440 62 204 5.0 7.0 0.00 0.00 0.00 40 1013.2
20260503172937 62 179 3.0 11.0 0.00 0.00 0.00 41 1013.7
20260503172434 62 217 5.0 11.0 0.00 0.00 0.00 41 1013.6
20260503171930 61 192 2.0 19.0 0.00 0.00 0.00 40 1013.8
20260503171427 61 6 4.0 11.0 0.00 0.00 0.00 43 1013.9
20260503170925 62 234 6.0 8.0 0.00 0.00 0.00 42 1013.8
20260503170421 61 202 6.0 9.0 0.00 0.00 0.00 41 1013.8
20260503150813 57 216 5.0 12.0 0.00 0.00 0.00 41 1014.8
20260503150309 56 145 3.0 15.0 0.00 0.00 0.00 44 1014.9
20260503140234 53 149 5.0 8.0 0.00 0.00 0.00 46 1015.0
20260503131203 48 201 1.0 4.0 0.00 0.00 0.00 53 1015.6
20260503130700 47 192 3.0 6.0 0.00 0.00 0.00 54 1015.7
20260503130158 47 181 4.0 7.0 0.00 0.00 0.00 57 1015.8
20260503120123 41 165 2.0 4.0 0.00 0.00 0.00 71 1015.6
20260503110550 37 106 0.0 2.0 0.00 0.00 0.00 77 1015.6
20260503090437 37 91 1.0 3.0 0.00 0.00 0.00 78 1015.3
20260503081404 37 20 1.0 3.0 0.00 0.00 0.00 79 1015.5
20260503080901 37 72 2.0 3.0 0.00 0.00 0.00 79 1015.5
20260503080358 37 81 3.0 3.0 0.00 0.00 0.00 79 1015.4
20260503072834 37 98 0.0 3.0 0.00 0.00 0.00 81 1015.3
20260503072331 37 89 0.0 2.0 0.00 0.00 0.00 81 1015.3
20260503071827 37 180 0.0 3.0 0.00 0.00 0.00 81 1015.4
20260503071325 37 231 0.0 2.0 0.00 0.00 0.00 81 1015.4
20260503070821 37 76 1.0 3.0 0.00 0.00 0.00 81 1015.3
20260503070319 37 188 2.0 3.0 0.00 0.00 0.00 82 1015.2
20260503060244 37 49 0.0 2.0 0.00 0.00 0.00 86 1015.7
20260503054731 37 138 2.0 3.0 0.00 0.00 0.00 86 1015.7
20260503054228 38 80 1.0 2.0 0.00 0.00 0.00 86 1015.7
20260503053726 38 150 2.0 3.0 0.00 0.00 0.00 86 1015.7
20260503053225 38 103 1.0 2.0 0.00 0.00 0.00 86 1015.7
20260503052720 38 65 0.0 2.0 0.00 0.00 0.00 86 1015.7
20260503052217 38 88 0.0 3.0 0.00 0.00 0.00 86 1015.9
20260503051712 38 106 2.0 3.0 0.00 0.00 0.00 86 1015.8
20260503051210 38 91 1.0 2.0 0.00 0.00 0.00 85 1015.9
20260503050707 38 89 0.0 2.0 0.00 0.00 0.00 85 1015.8
20260503050203 38 111 1.0 3.0 0.00 0.00 0.00 84 1015.7
20260503045701 38 89 0.0 3.0 0.00 0.00 0.00 84 1015.7